KF4KFQ Weather Reports


time (UTC)temp
C
wind
direction
speed
KPH
gust
KPH
rain 1hr
cm
rain 24hr
cm
rain mn
cm
humidity
%
barometer
mb
20260504050351 10 145 1.6 8.0 0.00 0.00 0.00 72 1012.2
20260504044824 10 182 1.6 3.2 0.00 0.00 0.00 73 1012.6
20260504043328 10 157 1.6 3.2 0.00 0.00 0.00 73 1012.8
20260504041837 10 204 1.6 1.6 0.00 0.00 0.00 73 1012.9
20260504040339 10 158 0.0 1.6 0.00 0.00 0.00 72 1013.2
20260504034825 10 211 0.0 0.0 0.00 0.00 0.00 72 1013.2
20260504033329 10 177 0.0 0.0 0.00 0.00 0.00 71 1013.1
20260504031836 11 177 0.0 3.2 0.00 0.00 0.00 70 1013.2
20260504030339 11 178 0.0 3.2 0.00 0.00 0.00 68 1013.3
20260504024902 11 178 0.0 3.2 0.00 0.00 0.00 67 1013.2
20260504023343 12 186 0.0 1.6 0.00 0.00 0.00 66 1013.2
20260504021832 12 186 0.0 3.2 0.00 0.00 0.00 62 1013.1
20260504020326 13 189 0.0 3.2 0.00 0.00 0.00 59 1012.8
20260504014852 13 189 0.0 3.2 0.00 0.00 0.00 57 1012.4
20260504013326 14 210 0.0 3.2 0.00 0.00 0.00 55 1012.5
20260504011832 15 210 0.0 3.2 0.00 0.00 0.00 51 1012.4
20260504010338 16 214 1.6 3.2 0.00 0.00 0.00 48 1012.7
20260504004824 17 207 0.0 6.4 0.00 0.00 0.00 46 1012.4
20260504003330 17 201 0.0 4.8 0.00 0.00 0.00 43 1012.4
20260504001825 18 197 0.0 4.8 0.00 0.00 0.00 41 1012.5
20260504000330 20 185 3.2 9.7 0.00 0.00 0.00 38 1012.6
20260503234826 21 192 1.6 6.4 0.00 0.00 0.00 36 1012.9
20260503233329 21 238 3.2 8.0 0.00 0.00 0.00 36 1013.1
20260503231824 21 211 4.8 14.5 0.00 0.00 0.00 35 1013.0
20260503230328 21 182 4.8 19.3 0.00 0.00 0.00 34 1013.0
20260503224827 21 188 3.2 11.3 0.00 0.00 0.00 35 1013.2
20260503223330 22 270 3.2 17.7 0.00 0.00 0.00 33 1013.5
20260503221827 22 202 1.6 12.9 0.00 0.00 0.00 32 1013.8
20260503220324 22 193 3.2 9.7 0.00 0.00 0.00 31 1013.9
20260503214825 22 217 3.2 11.3 0.00 0.00 0.00 34 1013.9
20260503213330 22 229 3.2 9.7 0.00 0.00 0.00 35 1014.2
20260503211824 21 247 6.4 14.5 0.00 0.00 0.00 34 1014.6
20260503210326 22 244 1.6 9.7 0.00 0.00 0.00 31 1014.7
20260503204834 21 157 3.2 16.1 0.00 0.00 0.00 33 1014.9
20260503203337 21 221 4.8 16.1 0.00 0.00 0.00 33 1015.0
20260503201840 21 211 6.4 16.1 0.00 0.00 0.00 32 1015.4
20260503200325 21 167 6.4 12.9 0.00 0.00 0.00 34 1015.7
20260503194833 21 269 6.4 17.7 0.00 0.00 0.00 33 1015.9
20260503193334 21 165 4.8 17.7 0.00 0.00 0.00 34 1016.3
20260503191839 21 223 3.2 9.7 0.00 0.00 0.00 36 1016.3
20260503190343 20 65 4.8 19.3 0.00 0.00 0.00 35 1016.6
20260503184830 20 217 6.4 11.3 0.00 0.00 0.00 37 1016.8
20260503183325 20 183 3.2 8.0 0.00 0.00 0.00 33 1017.1
20260503181827 19 185 1.6 14.5 0.00 0.00 0.00 38 1017.1
20260503180330 19 194 4.8 12.9 0.00 0.00 0.00 35 1017.2
20260503174827 19 69 6.4 12.9 0.00 0.00 0.00 40 1017.4
20260503173335 18 194 3.2 12.9 0.00 0.00 0.00 38 1017.8
20260503171835 18 230 3.2 8.0 0.00 0.00 0.00 39 1018.0
20260503170358 18 26 1.6 8.0 0.00 0.00 0.00 39 1018.1
20260503150333 16 57 3.2 8.0 0.00 0.00 0.00 41 1019.1
20260503130328 9 224 1.6 3.2 0.00 0.00 0.00 86 1019.0
20260503110326 1 211 0.0 1.6 0.00 0.00 0.00 93 1018.0
20260503090336 3 220 0.0 0.0 0.00 0.00 0.00 93 1017.4
20260503080339 4 220 0.0 0.0 0.00 0.00 0.00 93 1017.2
20260503071859 4 220 0.0 0.0 0.00 0.00 0.00 93 1017.2
20260503070325 4 220 0.0 0.0 0.00 0.00 0.00 92 1017.0